| time (UTC) | temp C | wind direction | speed KPH | gust KPH | rain 1hr cm | rain 24hr cm | rain mn cm | humidity % | barometer mb |
| 20260505035954 | 14 | 136 | 0.0 | 0.0 | 0.00 | 0.00 | 0.00 | 47 | 1007.3 |
| 20260505035450 | 14 | 136 | 0.0 | 0.0 | 0.00 | 0.00 | 0.00 | 47 | 1007.3 |
| 20260505034947 | 15 | 132 | 0.0 | 0.0 | 0.00 | 0.00 | 0.00 | 46 | 1007.3 |
| 20260505034444 | 15 | 132 | 0.0 | 0.0 | 0.00 | 0.00 | 0.00 | 46 | 1007.3 |
| 20260505033941 | 15 | 132 | 0.0 | 0.0 | 0.00 | 0.00 | 0.00 | 46 | 1007.5 |
| 20260505032427 | 16 | 130 | 0.0 | 0.0 | 0.00 | 0.00 | 0.00 | 43 | 1007.1 |
| 20260505031924 | 16 | 130 | 0.0 | 0.0 | 0.00 | 0.00 | 0.00 | 43 | 1007.1 |
| 20260505031421 | 16 | 130 | 0.0 | 0.0 | 0.00 | 0.00 | 0.00 | 43 | 1007.0 |
| 20260505030918 | 16 | 130 | 0.0 | 0.0 | 0.00 | 0.00 | 0.00 | 42 | 1007.0 |
| 20260505030413 | 16 | 134 | 0.0 | 0.0 | 0.00 | 0.00 | 0.00 | 43 | 1006.9 |
| 20260505025909 | 17 | 135 | 0.0 | 0.0 | 0.00 | 0.00 | 0.00 | 40 | 1006.9 |
| 20260505025407 | 17 | 135 | 0.0 | 0.0 | 0.00 | 0.00 | 0.00 | 39 | 1006.9 |
| 20260505024906 | 17 | 137 | 0.0 | 0.0 | 0.00 | 0.00 | 0.00 | 38 | 1006.9 |
| 20260505024403 | 17 | 135 | 0.0 | 0.0 | 0.00 | 0.00 | 0.00 | 38 | 1006.8 |
| 20260505023859 | 18 | 137 | 0.0 | 0.0 | 0.00 | 0.00 | 0.00 | 37 | 1006.5 |
| 20260505023356 | 18 | 139 | 0.0 | 0.0 | 0.00 | 0.00 | 0.00 | 37 | 1006.7 |
| 20260505022853 | 18 | 144 | 0.0 | 0.0 | 0.00 | 0.00 | 0.00 | 36 | 1006.5 |
| 20260505022350 | 18 | 133 | 0.0 | 0.0 | 0.00 | 0.00 | 0.00 | 36 | 1006.7 |
| 20260505021848 | 19 | 137 | 0.0 | 0.0 | 0.00 | 0.00 | 0.00 | 36 | 1006.7 |
| 20260505021344 | 19 | 138 | 0.0 | 0.0 | 0.00 | 0.00 | 0.00 | 35 | 1006.4 |
| 20260505020840 | 20 | 132 | 0.0 | 0.0 | 0.00 | 0.00 | 0.00 | 35 | 1006.4 |
| 20260505020336 | 20 | 137 | 0.0 | 0.0 | 0.00 | 0.00 | 0.00 | 34 | 1006.5 |
| 20260505015833 | 20 | 139 | 1.6 | 3.2 | 0.00 | 0.00 | 0.00 | 34 | 1006.4 |
| 20260505015330 | 20 | 136 | 0.0 | 1.6 | 0.00 | 0.00 | 0.00 | 33 | 1006.3 |
| 20260505014827 | 20 | 145 | 0.0 | 0.0 | 0.00 | 0.00 | 0.00 | 33 | 1006.4 |
| 20260505014324 | 20 | 134 | 0.0 | 0.0 | 0.00 | 0.00 | 0.00 | 33 | 1006.5 |
| 20260505013820 | 21 | 136 | 3.2 | 3.2 | 0.00 | 0.00 | 0.00 | 32 | 1006.2 |
| 20260505013318 | 21 | 170 | 1.6 | 3.2 | 0.00 | 0.00 | 0.00 | 34 | 1006.3 |
| 20260505012816 | 21 | 154 | 3.2 | 4.8 | 0.00 | 0.00 | 0.00 | 33 | 1006.3 |
| 20260505012314 | 21 | 160 | 0.0 | 3.2 | 0.00 | 0.00 | 0.00 | 34 | 1006.4 |
| 20260505011809 | 22 | 102 | 1.6 | 3.2 | 0.00 | 0.00 | 0.00 | 32 | 1006.4 |
| 20260505011307 | 22 | 158 | 3.2 | 6.4 | 0.00 | 0.00 | 0.00 | 31 | 1006.4 |
| 20260505010802 | 22 | 140 | 1.6 | 3.2 | 0.00 | 0.00 | 0.00 | 30 | 1006.4 |
| 20260505010258 | 23 | 133 | 4.8 | 4.8 | 0.00 | 0.00 | 0.00 | 30 | 1006.7 |
| 20260505005754 | 23 | 211 | 3.2 | 3.2 | 0.00 | 0.00 | 0.00 | 30 | 1006.5 |
| 20260505005252 | 23 | 143 | 0.0 | 1.6 | 0.00 | 0.00 | 0.00 | 31 | 1006.5 |
| 20260505004749 | 23 | 264 | 3.2 | 4.8 | 0.00 | 0.00 | 0.00 | 31 | 1006.4 |
| 20260505004245 | 23 | 263 | 1.6 | 4.8 | 0.00 | 0.00 | 0.00 | 31 | 1006.4 |
| 20260505003743 | 23 | 175 | 1.6 | 3.2 | 0.00 | 0.00 | 0.00 | 31 | 1006.5 |
| 20260505003240 | 23 | 204 | 3.2 | 4.8 | 0.00 | 0.00 | 0.00 | 29 | 1006.7 |
| 20260505002736 | 23 | 220 | 1.6 | 3.2 | 0.00 | 0.00 | 0.00 | 30 | 1006.8 |
| 20260505002234 | 23 | 189 | 3.2 | 3.2 | 0.00 | 0.00 | 0.00 | 32 | 1006.9 |
| 20260505001731 | 23 | 131 | 1.6 | 1.6 | 0.00 | 0.00 | 0.00 | 31 | 1006.9 |
| 20260505001229 | 23 | 167 | 1.6 | 1.6 | 0.00 | 0.00 | 0.00 | 32 | 1006.8 |
| 20260505000725 | 23 | 137 | 3.2 | 4.8 | 0.00 | 0.00 | 0.00 | 31 | 1006.9 |
| 20260505000226 | 23 | 221 | 4.8 | 6.4 | 0.00 | 0.00 | 0.00 | 31 | 1007.0 |
| 20260504235720 | 23 | 137 | 3.2 | 4.8 | 0.00 | 0.00 | 0.00 | 32 | 1006.8 |
| 20260504235216 | 23 | 124 | 4.8 | 6.4 | 0.00 | 0.00 | 0.00 | 33 | 1006.9 |
| 20260504234713 | 23 | 48 | 1.6 | 1.6 | 0.00 | 0.00 | 0.00 | 32 | 1006.8 |
| 20260504234210 | 23 | 188 | 4.8 | 6.4 | 0.00 | 0.00 | 0.00 | 31 | 1007.0 |
| 20260504233706 | 23 | 85 | 4.8 | 4.8 | 0.00 | 0.00 | 0.00 | 33 | 1007.0 |
| 20260504233202 | 23 | 134 | 1.6 | 1.6 | 0.00 | 0.00 | 0.00 | 34 | 1006.8 |
| 20260504232700 | 23 | 140 | 8.0 | 11.3 | 0.00 | 0.00 | 0.00 | 31 | 1007.0 |
| 20260504232157 | 23 | 146 | 4.8 | 6.4 | 0.00 | 0.00 | 0.00 | 33 | 1006.9 |
| 20260504231653 | 23 | 140 | 3.2 | 4.8 | 0.00 | 0.00 | 0.00 | 33 | 1006.7 |
| 20260504231150 | 23 | 159 | 6.4 | 9.7 | 0.00 | 0.00 | 0.00 | 33 | 1006.7 |
| 20260504230646 | 23 | 159 | 9.7 | 14.5 | 0.00 | 0.00 | 0.00 | 33 | 1006.9 |
| 20260504230145 | 24 | 126 | 6.4 | 9.7 | 0.00 | 0.00 | 0.00 | 32 | 1006.5 |
| 20260504225643 | 24 | 244 | 3.2 | 4.8 | 0.00 | 0.00 | 0.00 | 29 | 1006.9 |
| 20260504225138 | 24 | 183 | 6.4 | 9.7 | 0.00 | 0.00 | 0.00 | 26 | 1006.5 |
| 20260504224636 | 25 | 181 | 6.4 | 11.3 | 0.00 | 0.00 | 0.00 | 26 | 1006.7 |
| 20260504224132 | 26 | 149 | 1.6 | 1.6 | 0.00 | 0.00 | 0.00 | 27 | 1006.5 |
| 20260504223630 | 26 | 227 | 3.2 | 6.4 | 0.00 | 0.00 | 0.00 | 29 | 1006.9 |
| 20260504223125 | 25 | 182 | 3.2 | 3.2 | 0.00 | 0.00 | 0.00 | 26 | 1006.7 |
| 20260504222623 | 25 | 175 | 3.2 | 9.7 | 0.00 | 0.00 | 0.00 | 27 | 1006.9 |
| 20260504222120 | 26 | 132 | 1.6 | 3.2 | 0.00 | 0.00 | 0.00 | 26 | 1006.9 |
| 20260504221617 | 26 | 138 | 1.6 | 3.2 | 0.00 | 0.00 | 0.00 | 29 | 1006.8 |
| 20260504221114 | 26 | 138 | 3.2 | 3.2 | 0.00 | 0.00 | 0.00 | 26 | 1006.8 |
| 20260504220610 | 26 | 146 | 3.2 | 3.2 | 0.00 | 0.00 | 0.00 | 23 | 1007.0 |
| 20260504220108 | 26 | 214 | 1.6 | 3.2 | 0.00 | 0.00 | 0.00 | 28 | 1007.1 |
| 20260504215603 | 26 | 130 | 1.6 | 1.6 | 0.00 | 0.00 | 0.00 | 28 | 1007.0 |
| 20260504215101 | 26 | 196 | 3.2 | 4.8 | 0.00 | 0.00 | 0.00 | 27 | 1007.0 |
| 20260504214557 | 25 | 133 | 1.6 | 1.6 | 0.00 | 0.00 | 0.00 | 30 | 1007.3 |
| 20260504214053 | 25 | 139 | 0.0 | 1.6 | 0.00 | 0.00 | 0.00 | 30 | 1007.3 |
| 20260504213550 | 25 | 138 | 3.2 | 6.4 | 0.00 | 0.00 | 0.00 | 27 | 1007.3 |
| 20260504213047 | 25 | 152 | 1.6 | 1.6 | 0.00 | 0.00 | 0.00 | 30 | 1007.3 |
| 20260504212543 | 26 | 165 | 4.8 | 4.8 | 0.00 | 0.00 | 0.00 | 30 | 1007.7 |
| 20260504212040 | 25 | 133 | 3.2 | 3.2 | 0.00 | 0.00 | 0.00 | 27 | 1007.7 |
| 20260504211537 | 25 | 133 | 1.6 | 3.2 | 0.00 | 0.00 | 0.00 | 32 | 1007.8 |
| 20260504211034 | 26 | 34 | 3.2 | 4.8 | 0.00 | 0.00 | 0.00 | 29 | 1007.8 |
| 20260504210531 | 25 | 115 | 3.2 | 4.8 | 0.00 | 0.00 | 0.00 | 31 | 1007.8 |
| 20260504210028 | 25 | 143 | 0.0 | 1.6 | 0.00 | 0.00 | 0.00 | 32 | 1008.0 |
| 20260504205526 | 25 | 142 | 1.6 | 1.6 | 0.00 | 0.00 | 0.00 | 32 | 1008.0 |
| 20260504205023 | 25 | 215 | 3.2 | 4.8 | 0.00 | 0.00 | 0.00 | 31 | 1008.0 |
| 20260504204521 | 25 | 133 | 0.0 | 0.0 | 0.00 | 0.00 | 0.00 | 31 | 1008.1 |
| 20260504204020 | 25 | 119 | 1.6 | 3.2 | 0.00 | 0.00 | 0.00 | 25 | 1008.2 |
| 20260504203518 | 25 | 127 | 3.2 | 4.8 | 0.00 | 0.00 | 0.00 | 27 | 1008.1 |
| 20260504203015 | 25 | 128 | 3.2 | 3.2 | 0.00 | 0.00 | 0.00 | 33 | 1008.2 |
| 20260504202510 | 25 | 207 | 6.4 | 11.3 | 0.00 | 0.00 | 0.00 | 28 | 1008.4 |
| 20260504202007 | 25 | 121 | 3.2 | 3.2 | 0.00 | 0.00 | 0.00 | 32 | 1008.1 |
| 20260504201504 | 25 | 131 | 1.6 | 1.6 | 0.00 | 0.00 | 0.00 | 36 | 1008.2 |
| 20260504201002 | 25 | 148 | 1.6 | 1.6 | 0.00 | 0.00 | 0.00 | 29 | 1008.6 |
| 20260504200458 | 25 | 153 | 1.6 | 3.2 | 0.00 | 0.00 | 0.00 | 31 | 1008.5 |
| 20260504195955 | 25 | 148 | 6.4 | 6.4 | 0.00 | 0.00 | 0.00 | 32 | 1008.6 |
| 20260504195451 | 24 | 155 | 1.6 | 1.6 | 0.00 | 0.00 | 0.00 | 32 | 1008.5 |
| 20260504194948 | 24 | 121 | 3.2 | 3.2 | 0.00 | 0.00 | 0.00 | 31 | 1008.6 |
| 20260504194444 | 24 | 250 | 3.2 | 3.2 | 0.00 | 0.00 | 0.00 | 32 | 1008.6 |
| 20260504193940 | 24 | 113 | 1.6 | 1.6 | 0.00 | 0.00 | 0.00 | 33 | 1008.8 |
| 20260504193437 | 24 | 131 | 1.6 | 1.6 | 0.00 | 0.00 | 0.00 | 30 | 1008.9 |
| 20260504192936 | 24 | 136 | 0.0 | 0.0 | 0.00 | 0.00 | 0.00 | 34 | 1008.8 |
| 20260504192432 | 24 | 129 | 1.6 | 1.6 | 0.00 | 0.00 | 0.00 | 32 | 1009.0 |
| 20260504191932 | 24 | 292 | 1.6 | 3.2 | 0.00 | 0.00 | 0.00 | 33 | 1009.0 |
| 20260504191429 | 23 | 141 | 1.6 | 1.6 | 0.00 | 0.00 | 0.00 | 35 | 1009.2 |
| 20260504190924 | 24 | 232 | 4.8 | 6.4 | 0.00 | 0.00 | 0.00 | 31 | 1009.2 |
| 20260504190420 | 23 | 145 | 3.2 | 3.2 | 0.00 | 0.00 | 0.00 | 36 | 1009.2 |
| 20260504185917 | 24 | 138 | 4.8 | 4.8 | 0.00 | 0.00 | 0.00 | 33 | 1009.3 |
| 20260504185414 | 24 | 120 | 3.2 | 4.8 | 0.00 | 0.00 | 0.00 | 34 | 1009.4 |
| 20260504184910 | 23 | 154 | 0.0 | 0.0 | 0.00 | 0.00 | 0.00 | 35 | 1009.3 |
| 20260504184406 | 24 | 164 | 3.2 | 3.2 | 0.00 | 0.00 | 0.00 | 34 | 1009.4 |
| 20260504183902 | 23 | 145 | 1.6 | 3.2 | 0.00 | 0.00 | 0.00 | 35 | 1009.5 |
| 20260504183400 | 23 | 136 | 1.6 | 1.6 | 0.00 | 0.00 | 0.00 | 32 | 1009.7 |
| 20260504182857 | 23 | 136 | 0.0 | 0.0 | 0.00 | 0.00 | 0.00 | 34 | 1009.7 |
| 20260504182354 | 24 | 140 | 4.8 | 6.4 | 0.00 | 0.00 | 0.00 | 32 | 1009.7 |
| 20260504181851 | 24 | 134 | 1.6 | 1.6 | 0.00 | 0.00 | 0.00 | 31 | 1009.7 |
| 20260504181348 | 25 | 146 | 3.2 | 3.2 | 0.00 | 0.00 | 0.00 | 35 | 1009.8 |
| 20260504180847 | 25 | 143 | 0.0 | 1.6 | 0.00 | 0.00 | 0.00 | 37 | 1009.8 |
| 20260504180345 | 24 | 145 | 1.6 | 1.6 | 0.00 | 0.00 | 0.00 | 34 | 1010.1 |
| 20260504175843 | 24 | 165 | 4.8 | 4.8 | 0.00 | 0.00 | 0.00 | 31 | 1010.1 |
| 20260504175339 | 23 | 134 | 1.6 | 1.6 | 0.00 | 0.00 | 0.00 | 40 | 1010.1 |
| 20260504174838 | 23 | 138 | 0.0 | 0.0 | 0.00 | 0.00 | 0.00 | 36 | 1010.1 |
| 20260504174335 | 23 | 129 | 0.0 | 1.6 | 0.00 | 0.00 | 0.00 | 32 | 1010.2 |
| 20260504173832 | 23 | 197 | 3.2 | 3.2 | 0.00 | 0.00 | 0.00 | 36 | 1010.0 |
| 20260504173329 | 23 | 138 | 0.0 | 0.0 | 0.00 | 0.00 | 0.00 | 34 | 1010.3 |
| 20260504172826 | 22 | 139 | 6.4 | 9.7 | 0.00 | 0.00 | 0.00 | 32 | 1010.1 |
| 20260504172322 | 22 | 173 | 3.2 | 4.8 | 0.00 | 0.00 | 0.00 | 32 | 1010.3 |
| 20260504171818 | 23 | 121 | 3.2 | 4.8 | 0.00 | 0.00 | 0.00 | 33 | 1010.1 |
| 20260504171315 | 23 | 173 | 4.8 | 4.8 | 0.00 | 0.00 | 0.00 | 33 | 1010.2 |
| 20260504170813 | 23 | 153 | 1.6 | 1.6 | 0.00 | 0.00 | 0.00 | 36 | 1010.3 |
| 20260504170309 | 23 | 129 | 1.6 | 1.6 | 0.00 | 0.00 | 0.00 | 37 | 1010.2 |
| 20260504160227 | 21 | 143 | 1.6 | 1.6 | 0.00 | 0.00 | 0.00 | 37 | 1010.5 |
| 20260504150653 | 20 | 135 | 1.6 | 1.6 | 0.00 | 0.00 | 0.00 | 36 | 1010.6 |
| 20260504150150 | 19 | 137 | 0.0 | 0.0 | 0.00 | 0.00 | 0.00 | 40 | 1010.6 |
| 20260504141119 | 13 | 143 | 0.0 | 0.0 | 0.00 | 0.00 | 0.00 | 52 | 1010.9 |
| 20260504140615 | 13 | 134 | 0.0 | 0.0 | 0.00 | 0.00 | 0.00 | 52 | 1010.9 |
| 20260504140111 | 13 | 132 | 0.0 | 0.0 | 0.00 | 0.00 | 0.00 | 52 | 1010.7 |
| 20260504130539 | 8 | 132 | 0.0 | 0.0 | 0.00 | 0.00 | 0.00 | 57 | 1010.6 |
| 20260504110427 | 11 | 137 | 0.0 | 0.0 | 0.00 | 0.00 | 0.00 | 45 | 1011.0 |
| 20260504100344 | 9 | 130 | 0.0 | 0.0 | 0.00 | 0.00 | 0.00 | 56 | 1010.6 |
| 20260504081737 | 10 | 138 | 0.0 | 0.0 | 0.00 | 0.00 | 0.00 | 56 | 1009.5 |
| 20260504081233 | 11 | 130 | 0.0 | 0.0 | 0.00 | 0.00 | 0.00 | 55 | 1009.7 |
| 20260504080730 | 11 | 133 | 0.0 | 1.6 | 0.00 | 0.00 | 0.00 | 54 | 1010.0 |
| 20260504080226 | 11 | 125 | 0.0 | 0.0 | 0.00 | 0.00 | 0.00 | 55 | 1009.6 |
| 20260504070153 | 14 | 125 | 3.2 | 4.8 | 0.00 | 0.00 | 0.00 | 37 | 1009.6 |
| 20260504060114 | 13 | 137 | 0.0 | 0.0 | 0.00 | 0.00 | 0.00 | 31 | 1009.8 |
| 20260504050542 | 15 | 133 | 0.0 | 0.0 | 0.00 | 0.00 | 0.00 | 30 | 1010.1 |
| 20260504045536 | 15 | 133 | 0.0 | 0.0 | 0.00 | 0.00 | 0.00 | 30 | 1010.2 |
| 20260504045032 | 15 | 130 | 0.0 | 0.0 | 0.00 | 0.00 | 0.00 | 29 | 1010.4 |
| 20260504044529 | 14 | 131 | 0.0 | 0.0 | 0.00 | 0.00 | 0.00 | 31 | 1010.3 |
| 20260504044026 | 14 | 135 | 0.0 | 0.0 | 0.00 | 0.00 | 0.00 | 31 | 1010.3 |
| 20260504043523 | 13 | 133 | 0.0 | 0.0 | 0.00 | 0.00 | 0.00 | 33 | 1010.3 |
| 20260504043021 | 13 | 137 | 0.0 | 0.0 | 0.00 | 0.00 | 0.00 | 31 | 1010.4 |
| 20260504042517 | 14 | 137 | 0.0 | 0.0 | 0.00 | 0.00 | 0.00 | 31 | 1010.4 |
| 20260504042014 | 14 | 137 | 0.0 | 0.0 | 0.00 | 0.00 | 0.00 | 31 | 1010.5 |
| 20260504041510 | 14 | 137 | 0.0 | 0.0 | 0.00 | 0.00 | 0.00 | 31 | 1010.4 |
| 20260504041006 | 14 | 137 | 0.0 | 0.0 | 0.00 | 0.00 | 0.00 | 31 | 1010.5 |
| 20260504040504 | 14 | 135 | 0.0 | 0.0 | 0.00 | 0.00 | 0.00 | 31 | 1010.3 |